(499518) = 2010 CC134 = 2010 PZ54

Discovered at WISE on 2010-02-15 by WISE.

Orbit

Orbit type: Main Belt

Note: WebGL enabled browser required.

epoch2023-09-13.0
epoch JD2460200.5
perihelion date2021-08-12.33261
perihelion JD2459438.83261
argument of perihelion (°)49.64481
ascending node (°)169.12530
inclination (°)22.31551
eccentricity0.0880462
perihelion distance (AU)2.9237017
Tisserand w.r.t. Jupiter3.1
ΔV w.r.t. Earth (km/sec)12.7
semimajor axis (AU)3.2059759
mean anomaly (°)130.77624
mean daily motion (°/day)0.17169730
aphelion distance (AU)3.488
period (years)5.74
P-vector [x]-0.76889750
P-vector [y]-0.63820074
P-vector [z]0.03868391
Q-vector [x]0.63534628
Q-vector [y]-0.76943527
Q-vector [z]-0.06560847
absolute magnitude16.35
phase slope0.15
uncertainty0
referenceMPO 780336
observations used138
oppositions7
arc length (days)4990
first opposition used2010
last opposition used2023
residual rms (arc-secs)0.74
perturbers coarse indicatorM-v
perturbers precise indicator003Ek
first observation date used2010-02-15.0
last observation date used2023-10-15.0
computer nameMPCLINUX
JD of orbit computation2458009.264168
perihelion JD uncertainty (days)3.8317E-04
argument of perihelion uncertainty (°)7.2282E-05
ascending node uncertainty (°)1.5624E-05
inclination uncertainty (°)9.4428E-06
eccentricity uncertainty 8.7344E-08
perihelion distance uncertainty (AU)2.9965E-07
Minimum Orbit Intersection Distances (in AU)
for orbit epoch: 2460200.5, reference: E2023-U02
Mercury2.501
Venus2.22362
Earth1.96257
Mars1.32749
Jupiter1.55539
Saturn5.9116
Uranus15.4133
Neptune26.4286

Observations

141 total observations over interval: 2010 02 15.45492 – 2023 10 15.336193
These data are available for download (format description).

